Date AST Hour Ending, MW ,,,,,,,,,,,,,,,,,
6/1/2014 1:00,210,,,,,,,,,,,,,,,,,
6/1/2014 2:00,204,,,,,,,,,,,,,,,,,
6/1/2014 3:00,205,,,,,,,,,,,,,,,,,
6/1/2014 4:00,224,,,,,,,,,,,,,,,,,
6/1/2014 5:00,233,,,,,,,,,,,,,,,,,
6/1/2014 6:00,253,,,,,,,,,,,,,,,,,
6/1/2014 7:00,244,,,,,,,,,,,,,,,,,
6/1/2014 8:00,293,,,,,,,,,,,,,,,,,
6/1/2014 9:00,345,,,,,,,,,,,,,,,,,
6/1/2014 10:00,387,,,,,,,,,,,,,,,,,
6/1/2014 11:00,411,,,,,,,,,,,,,,,,,
6/1/2014 12:00,416,,,,,,,,,,,,,,,,,
6/1/2014 13:00,409,,,,,,,,,,,,,,,,,
6/1/2014 14:00,396,,,,,,,,,,,,,,,,,
6/1/2014 15:00,392,,,,,,,,,,,,,,,,,
6/1/2014 16:00,385,,,,,,,,,,,,,,,,,
6/1/2014 17:00,403,,,,,,,,,,,,,,,,,
6/1/2014 18:00,415,,,,,,,,,,,,,,,,,
6/1/2014 19:00,407,,,,,,,,,,,,,,,,,
6/1/2014 20:00,423,,,,,,,,,,,,,,,,,
6/1/2014 21:00,438,,,,,,,,,,,,,,,,,
6/1/2014 22:00,475,,,,,,,,,,,,,,,,,
6/1/2014 23:00,442,,,,,,,,,,,,,,,,,
6/2/2014 0:00,386,,,,,,,,,,,,,,,,,
6/2/2014 1:00,315,,,,,,,,,,,,,,,,,
6/2/2014 2:00,292,,,,,,,,,,,,,,,,,
6/2/2014 3:00,275,,,,,,,,,,,,,,,,,
6/2/2014 4:00,268,,,,,,,,,,,,,,,,,
6/2/2014 5:00,329,,,,,,,,,,,,,,,,,
6/2/2014 6:00,339,,,,,,,,,,,,,,,,,
6/2/2014 7:00,353,,,,,,,,,,,,,,,,,
6/2/2014 8:00,435,,,,,,,,,,,,,,,,,
6/2/2014 9:00,456,,,,,,,,,,,,,,,,,
6/2/2014 10:00,456,,,,,,,,,,,,,,,,,
6/2/2014 11:00,477,,,,,,,,,,,,,,,,,
6/2/2014 12:00,506,,,,,,,,,,,,,,,,,
6/2/2014 13:00,493,,,,,,,,,,,,,,,,,
6/2/2014 14:00,486,,,,,,,,,,,,,,,,,
6/2/2014 15:00,474,,,,,,,,,,,,,,,,,
6/2/2014 16:00,475,,,,,,,,,,,,,,,,,
6/2/2014 17:00,491,,,,,,,,,,,,,,,,,
6/2/2014 18:00,495,,,,,,,,,,,,,,,,,
6/2/2014 19:00,466,,,,,,,,,,,,,,,,,
6/2/2014 20:00,452,,,,,,,,,,,,,,,,,
6/2/2014 21:00,447,,,,,,,,,,,,,,,,,
6/2/2014 22:00,451,,,,,,,,,,,,,,,,,
6/2/2014 23:00,399,,,,,,,,,,,,,,,,,
6/3/2014 0:00,347,,,,,,,,,,,,,,,,,
6/3/2014 1:00,291,,,,,,,,,,,,,,,,,
6/3/2014 2:00,278,,,,,,,,,,,,,,,,,
6/3/2014 3:00,254,,,,,,,,,,,,,,,,,
6/3/2014 4:00,254,,,,,,,,,,,,,,,,,
6/3/2014 5:00,269,,,,,,,,,,,,,,,,,
6/3/2014 6:00,271,,,,,,,,,,,,,,,,,
6/3/2014 7:00,318,,,,,,,,,,,,,,,,,
6/3/2014 8:00,379,,,,,,,,,,,,,,,,,
6/3/2014 9:00,406,,,,,,,,,,,,,,,,,
6/3/2014 10:00,407,,,,,,,,,,,,,,,,,
6/3/2014 11:00,415,,,,,,,,,,,,,,,,,
6/3/2014 12:00,416,,,,,,,,,,,,,,,,,
6/3/2014 13:00,407,,,,,,,,,,,,,,,,,
6/3/2014 14:00,396,,,,,,,,,,,,,,,,,
6/3/2014 15:00,378,,,,,,,,,,,,,,,,,
6/3/2014 16:00,388,,,,,,,,,,,,,,,,,
6/3/2014 17:00,405,,,,,,,,,,,,,,,,,
6/3/2014 18:00,435,,,,,,,,,,,,,,,,,
6/3/2014 19:00,399,,,,,,,,,,,,,,,,,
6/3/2014 20:00,396,,,,,,,,,,,,,,,,,
6/3/2014 21:00,402,,,,,,,,,,,,,,,,,
6/3/2014 22:00,391,,,,,,,,,,,,,,,,,
6/3/2014 23:00,333,,,,,,,,,,,,,,,,,
6/4/2014 0:00,278,,,,,,,,,,,,,,,,,
6/4/2014 1:00,233,,,,,,,,,,,,,,,,,
6/4/2014 2:00,202,,,,,,,,,,,,,,,,,
6/4/2014 3:00,201,,,,,,,,,,,,,,,,,
6/4/2014 4:00,192,,,,,,,,,,,,,,,,,
6/4/2014 5:00,189,,,,,,,,,,,,,,,,,
6/4/2014 6:00,217,,,,,,,,,,,,,,,,,
6/4/2014 7:00,295,,,,,,,,,,,,,,,,,
6/4/2014 8:00,382,,,,,,,,,,,,,,,,,
6/4/2014 9:00,408,,,,,,,,,,,,,,,,,
6/4/2014 10:00,421,,,,,,,,,,,,,,,,,
6/4/2014 11:00,432,,,,,,,,,,,,,,,,,
6/4/2014 12:00,442,,,,,,,,,,,,,,,,,
6/4/2014 13:00,439,,,,,,,,,,,,,,,,,
6/4/2014 14:00,436,,,,,,,,,,,,,,,,,
6/4/2014 15:00,467,,,,,,,,,,,,,,,,,
6/4/2014 16:00,461,,,,,,,,,,,,,,,,,
6/4/2014 17:00,439,,,,,,,,,,,,,,,,,
6/4/2014 18:00,443,,,,,,,,,,,,,,,,,
6/4/2014 19:00,438,,,,,,,,,,,,,,,,,
6/4/2014 20:00,405,,,,,,,,,,,,,,,,,
6/4/2014 21:00,400,,,,,,,,,,,,,,,,,
6/4/2014 22:00,412,,,,,,,,,,,,,,,,,
6/4/2014 23:00,367,,,,,,,,,,,,,,,,,
6/5/2014 0:00,304,,,,,,,,,,,,,,,,,
6/5/2014 1:00,249,,,,,,,,,,,,,,,,,
6/5/2014 2:00,215,,,,,,,,,,,,,,,,,
6/5/2014 3:00,202,,,,,,,,,,,,,,,,,
6/5/2014 4:00,199,,,,,,,,,,,,,,,,,
6/5/2014 5:00,204,,,,,,,,,,,,,,,,,
6/5/2014 6:00,235,,,,,,,,,,,,,,,,,
6/5/2014 7:00,335,,,,,,,,,,,,,,,,,
6/5/2014 8:00,433,,,,,,,,,,,,,,,,,
6/5/2014 9:00,460,,,,,,,,,,,,,,,,,
6/5/2014 10:00,458,,,,,,,,,,,,,,,,,
6/5/2014 11:00,463,,,,,,,,,,,,,,,,,
6/5/2014 12:00,458,,,,,,,,,,,,,,,,,
6/5/2014 13:00,435,,,,,,,,,,,,,,,,,
6/5/2014 14:00,429,,,,,,,,,,,,,,,,,
6/5/2014 15:00,422,,,,,,,,,,,,,,,,,
6/5/2014 16:00,414,,,,,,,,,,,,,,,,,
6/5/2014 17:00,414,,,,,,,,,,,,,,,,,
6/5/2014 18:00,435,,,,,,,,,,,,,,,,,
6/5/2014 19:00,414,,,,,,,,,,,,,,,,,
6/5/2014 20:00,392,,,,,,,,,,,,,,,,,
6/5/2014 21:00,377,,,,,,,,,,,,,,,,,
6/5/2014 22:00,358,,,,,,,,,,,,,,,,,
6/5/2014 23:00,300,,,,,,,,,,,,,,,,,
6/6/2014 0:00,240,,,,,,,,,,,,,,,,,
6/6/2014 1:00,196,,,,,,,,,,,,,,,,,
6/6/2014 2:00,183,,,,,,,,,,,,,,,,,
6/6/2014 3:00,178,,,,,,,,,,,,,,,,,
6/6/2014 4:00,196,,,,,,,,,,,,,,,,,
6/6/2014 5:00,218,,,,,,,,,,,,,,,,,
6/6/2014 6:00,242,,,,,,,,,,,,,,,,,
6/6/2014 7:00,284,,,,,,,,,,,,,,,,,
6/6/2014 8:00,360,,,,,,,,,,,,,,,,,
6/6/2014 9:00,393,,,,,,,,,,,,,,,,,
6/6/2014 10:00,405,,,,,,,,,,,,,,,,,
6/6/2014 11:00,394,,,,,,,,,,,,,,,,,
6/6/2014 12:00,394,,,,,,,,,,,,,,,,,
6/6/2014 13:00,377,,,,,,,,,,,,,,,,,
6/6/2014 14:00,375,,,,,,,,,,,,,,,,,
6/6/2014 15:00,378,,,,,,,,,,,,,,,,,
6/6/2014 16:00,368,,,,,,,,,,,,,,,,,
6/6/2014 17:00,367,,,,,,,,,,,,,,,,,
6/6/2014 18:00,358,,,,,,,,,,,,,,,,,
6/6/2014 19:00,339,,,,,,,,,,,,,,,,,
6/6/2014 20:00,335,,,,,,,,,,,,,,,,,
6/6/2014 21:00,329,,,,,,,,,,,,,,,,,
6/6/2014 22:00,309,,,,,,,,,,,,,,,,,
6/6/2014 23:00,289,,,,,,,,,,,,,,,,,
6/7/2014 0:00,256,,,,,,,,,,,,,,,,,
6/7/2014 1:00,239,,,,,,,,,,,,,,,,,
6/7/2014 2:00,212,,,,,,,,,,,,,,,,,
6/7/2014 3:00,196,,,,,,,,,,,,,,,,,
6/7/2014 4:00,159,,,,,,,,,,,,,,,,,
6/7/2014 5:00,144,,,,,,,,,,,,,,,,,
6/7/2014 6:00,174,,,,,,,,,,,,,,,,,
6/7/2014 7:00,181,,,,,,,,,,,,,,,,,
6/7/2014 8:00,237,,,,,,,,,,,,,,,,,
6/7/2014 9:00,266,,,,,,,,,,,,,,,,,
6/7/2014 10:00,308,,,,,,,,,,,,,,,,,
6/7/2014 11:00,337,,,,,,,,,,,,,,,,,
6/7/2014 12:00,352,,,,,,,,,,,,,,,,,
6/7/2014 13:00,346,,,,,,,,,,,,,,,,,
6/7/2014 14:00,332,,,,,,,,,,,,,,,,,
6/7/2014 15:00,311,,,,,,,,,,,,,,,,,
6/7/2014 16:00,306,,,,,,,,,,,,,,,,,
6/7/2014 17:00,332,,,,,,,,,,,,,,,,,
6/7/2014 18:00,352,,,,,,,,,,,,,,,,,
6/7/2014 19:00,343,,,,,,,,,,,,,,,,,
6/7/2014 20:00,338,,,,,,,,,,,,,,,,,
6/7/2014 21:00,342,,,,,,,,,,,,,,,,,
6/7/2014 22:00,348,,,,,,,,,,,,,,,,,
6/7/2014 23:00,342,,,,,,,,,,,,,,,,,
6/8/2014 0:00,315,,,,,,,,,,,,,,,,,
6/8/2014 1:00,256,,,,,,,,,,,,,,,,,
6/8/2014 2:00,213,,,,,,,,,,,,,,,,,
6/8/2014 3:00,203,,,,,,,,,,,,,,,,,
6/8/2014 4:00,214,,,,,,,,,,,,,,,,,
6/8/2014 5:00,220,,,,,,,,,,,,,,,,,
6/8/2014 6:00,221,,,,,,,,,,,,,,,,,
6/8/2014 7:00,227,,,,,,,,,,,,,,,,,
6/8/2014 8:00,247,,,,,,,,,,,,,,,,,
6/8/2014 9:00,321,,,,,,,,,,,,,,,,,
6/8/2014 10:00,337,,,,,,,,,,,,,,,,,
6/8/2014 11:00,354,,,,,,,,,,,,,,,,,
6/8/2014 12:00,359,,,,,,,,,,,,,,,,,
6/8/2014 13:00,354,,,,,,,,,,,,,,,,,
6/8/2014 14:00,334,,,,,,,,,,,,,,,,,
6/8/2014 15:00,333,,,,,,,,,,,,,,,,,
6/8/2014 16:00,332,,,,,,,,,,,,,,,,,
6/8/2014 17:00,353,,,,,,,,,,,,,,,,,
6/8/2014 18:00,365,,,,,,,,,,,,,,,,,
6/8/2014 19:00,353,,,,,,,,,,,,,,,,,
6/8/2014 20:00,354,,,,,,,,,,,,,,,,,
6/8/2014 21:00,363,,,,,,,,,,,,,,,,,
6/8/2014 22:00,371,,,,,,,,,,,,,,,,,
6/8/2014 23:00,315,,,,,,,,,,,,,,,,,
6/9/2014 0:00,256,,,,,,,,,,,,,,,,,
6/9/2014 1:00,204,,,,,,,,,,,,,,,,,
6/9/2014 2:00,186,,,,,,,,,,,,,,,,,
6/9/2014 3:00,173,,,,,,,,,,,,,,,,,
6/9/2014 4:00,164,,,,,,,,,,,,,,,,,
6/9/2014 5:00,165,,,,,,,,,,,,,,,,,
6/9/2014 6:00,195,,,,,,,,,,,,,,,,,
6/9/2014 7:00,273,,,,,,,,,,,,,,,,,
6/9/2014 8:00,373,,,,,,,,,,,,,,,,,
6/9/2014 9:00,413,,,,,,,,,,,,,,,,,
6/9/2014 10:00,429,,,,,,,,,,,,,,,,,
6/9/2014 11:00,439,,,,,,,,,,,,,,,,,
6/9/2014 12:00,434,,,,,,,,,,,,,,,,,
6/9/2014 13:00,422,,,,,,,,,,,,,,,,,
6/9/2014 14:00,414,,,,,,,,,,,,,,,,,
6/9/2014 15:00,403,,,,,,,,,,,,,,,,,
6/9/2014 16:00,413,,,,,,,,,,,,,,,,,
6/9/2014 17:00,434,,,,,,,,,,,,,,,,,
6/9/2014 18:00,446,,,,,,,,,,,,,,,,,
6/9/2014 19:00,409,,,,,,,,,,,,,,,,,
6/9/2014 20:00,384,,,,,,,,,,,,,,,,,
6/9/2014 21:00,377,,,,,,,,,,,,,,,,,
6/9/2014 22:00,370,,,,,,,,,,,,,,,,,
6/9/2014 23:00,327,,,,,,,,,,,,,,,,,
6/10/2014 0:00,299,,,,,,,,,,,,,,,,,
6/10/2014 1:00,251,,,,,,,,,,,,,,,,,
6/10/2014 2:00,209,,,,,,,,,,,,,,,,,
6/10/2014 3:00,190,,,,,,,,,,,,,,,,,
6/10/2014 4:00,206,,,,,,,,,,,,,,,,,
6/10/2014 5:00,204,,,,,,,,,,,,,,,,,
6/10/2014 6:00,223,,,,,,,,,,,,,,,,,
6/10/2014 7:00,284,,,,,,,,,,,,,,,,,
6/10/2014 8:00,384,,,,,,,,,,,,,,,,,
6/10/2014 9:00,441,,,,,,,,,,,,,,,,,
6/10/2014 10:00,433,,,,,,,,,,,,,,,,,
6/10/2014 11:00,442,,,,,,,,,,,,,,,,,
6/10/2014 12:00,455,,,,,,,,,,,,,,,,,
6/10/2014 13:00,463,,,,,,,,,,,,,,,,,
6/10/2014 14:00,470,,,,,,,,,,,,,,,,,
6/10/2014 15:00,437,,,,,,,,,,,,,,,,,
6/10/2014 16:00,431,,,,,,,,,,,,,,,,,
6/10/2014 17:00,458,,,,,,,,,,,,,,,,,
6/10/2014 18:00,478,,,,,,,,,,,,,,,,,
6/10/2014 19:00,460,,,,,,,,,,,,,,,,,
6/10/2014 20:00,429,,,,,,,,,,,,,,,,,
6/10/2014 21:00,419,,,,,,,,,,,,,,,,,
6/10/2014 22:00,398,,,,,,,,,,,,,,,,,
6/10/2014 23:00,338,,,,,,,,,,,,,,,,,
6/11/2014 0:00,255,,,,,,,,,,,,,,,,,
6/11/2014 1:00,214,,,,,,,,,,,,,,,,,
6/11/2014 2:00,202,,,,,,,,,,,,,,,,,
6/11/2014 3:00,218,,,,,,,,,,,,,,,,,
6/11/2014 4:00,199,,,,,,,,,,,,,,,,,
6/11/2014 5:00,198,,,,,,,,,,,,,,,,,
6/11/2014 6:00,216,,,,,,,,,,,,,,,,,
6/11/2014 7:00,287,,,,,,,,,,,,,,,,,
6/11/2014 8:00,427,,,,,,,,,,,,,,,,,
6/11/2014 9:00,476,,,,,,,,,,,,,,,,,
6/11/2014 10:00,479,,,,,,,,,,,,,,,,,
6/11/2014 11:00,497,,,,,,,,,,,,,,,,,
6/11/2014 12:00,504,,,,,,,,,,,,,,,,,
6/11/2014 13:00,501,,,,,,,,,,,,,,,,,
6/11/2014 14:00,486,,,,,,,,,,,,,,,,,
6/11/2014 15:00,479,,,,,,,,,,,,,,,,,
6/11/2014 16:00,472,,,,,,,,,,,,,,,,,
6/11/2014 17:00,481,,,,,,,,,,,,,,,,,
6/11/2014 18:00,489,,,,,,,,,,,,,,,,,
6/11/2014 19:00,486,,,,,,,,,,,,,,,,,
6/11/2014 20:00,452,,,,,,,,,,,,,,,,,
6/11/2014 21:00,465,,,,,,,,,,,,,,,,,
6/11/2014 22:00,461,,,,,,,,,,,,,,,,,
6/11/2014 23:00,424,,,,,,,,,,,,,,,,,
6/12/2014 0:00,360,,,,,,,,,,,,,,,,,
6/12/2014 1:00,300,,,,,,,,,,,,,,,,,
6/12/2014 2:00,276,,,,,,,,,,,,,,,,,
6/12/2014 3:00,265,,,,,,,,,,,,,,,,,
6/12/2014 4:00,255,,,,,,,,,,,,,,,,,
6/12/2014 5:00,257,,,,,,,,,,,,,,,,,
6/12/2014 6:00,260,,,,,,,,,,,,,,,,,
6/12/2014 7:00,313,,,,,,,,,,,,,,,,,
6/12/2014 8:00,396,,,,,,,,,,,,,,,,,
6/12/2014 9:00,437,,,,,,,,,,,,,,,,,
6/12/2014 10:00,461,,,,,,,,,,,,,,,,,
6/12/2014 11:00,460,,,,,,,,,,,,,,,,,
6/12/2014 12:00,449,,,,,,,,,,,,,,,,,
6/12/2014 13:00,439,,,,,,,,,,,,,,,,,
6/12/2014 14:00,432,,,,,,,,,,,,,,,,,
6/12/2014 15:00,422,,,,,,,,,,,,,,,,,
6/12/2014 16:00,427,,,,,,,,,,,,,,,,,
6/12/2014 17:00,440,,,,,,,,,,,,,,,,,
6/12/2014 18:00,435,,,,,,,,,,,,,,,,,
6/12/2014 19:00,413,,,,,,,,,,,,,,,,,
6/12/2014 20:00,408,,,,,,,,,,,,,,,,,
6/12/2014 21:00,418,,,,,,,,,,,,,,,,,
6/12/2014 22:00,420,,,,,,,,,,,,,,,,,
6/12/2014 23:00,363,,,,,,,,,,,,,,,,,
6/13/2014 0:00,297,,,,,,,,,,,,,,,,,
6/13/2014 1:00,235,,,,,,,,,,,,,,,,,
6/13/2014 2:00,212,,,,,,,,,,,,,,,,,
6/13/2014 3:00,202,,,,,,,,,,,,,,,,,
6/13/2014 4:00,188,,,,,,,,,,,,,,,,,
6/13/2014 5:00,174,,,,,,,,,,,,,,,,,
6/13/2014 6:00,205,,,,,,,,,,,,,,,,,
6/13/2014 7:00,264,,,,,,,,,,,,,,,,,
6/13/2014 8:00,356,,,,,,,,,,,,,,,,,
6/13/2014 9:00,398,,,,,,,,,,,,,,,,,
6/13/2014 10:00,408,,,,,,,,,,,,,,,,,
6/13/2014 11:00,391,,,,,,,,,,,,,,,,,
6/13/2014 12:00,391,,,,,,,,,,,,,,,,,
6/13/2014 13:00,391,,,,,,,,,,,,,,,,,
6/13/2014 14:00,391,,,,,,,,,,,,,,,,,
6/13/2014 15:00,373,,,,,,,,,,,,,,,,,
6/13/2014 16:00,370,,,,,,,,,,,,,,,,,
6/13/2014 17:00,373,,,,,,,,,,,,,,,,,
6/13/2014 18:00,361,,,,,,,,,,,,,,,,,
6/13/2014 19:00,338,,,,,,,,,,,,,,,,,
6/13/2014 20:00,322,,,,,,,,,,,,,,,,,
6/13/2014 21:00,317,,,,,,,,,,,,,,,,,
6/13/2014 22:00,330,,,,,,,,,,,,,,,,,
6/13/2014 23:00,315,,,,,,,,,,,,,,,,,
6/14/2014 0:00,261,,,,,,,,,,,,,,,,,
6/14/2014 1:00,221,,,,,,,,,,,,,,,,,
6/14/2014 2:00,207,,,,,,,,,,,,,,,,,
6/14/2014 3:00,202,,,,,,,,,,,,,,,,,
6/14/2014 4:00,193,,,,,,,,,,,,,,,,,
6/14/2014 5:00,203,,,,,,,,,,,,,,,,,
6/14/2014 6:00,210,,,,,,,,,,,,,,,,,
6/14/2014 7:00,212,,,,,,,,,,,,,,,,,
6/14/2014 8:00,228,,,,,,,,,,,,,,,,,
6/14/2014 9:00,278,,,,,,,,,,,,,,,,,
6/14/2014 10:00,342,,,,,,,,,,,,,,,,,
6/14/2014 11:00,389,,,,,,,,,,,,,,,,,
6/14/2014 12:00,423,,,,,,,,,,,,,,,,,
6/14/2014 13:00,427,,,,,,,,,,,,,,,,,
6/14/2014 14:00,415,,,,,,,,,,,,,,,,,
6/14/2014 15:00,401,,,,,,,,,,,,,,,,,
6/14/2014 16:00,394,,,,,,,,,,,,,,,,,
6/14/2014 17:00,406,,,,,,,,,,,,,,,,,
6/14/2014 18:00,405,,,,,,,,,,,,,,,,,
6/14/2014 19:00,381,,,,,,,,,,,,,,,,,
6/14/2014 20:00,365,,,,,,,,,,,,,,,,,
6/14/2014 21:00,366,,,,,,,,,,,,,,,,,
6/14/2014 22:00,376,,,,,,,,,,,,,,,,,
6/14/2014 23:00,345,,,,,,,,,,,,,,,,,
6/15/2014 0:00,283,,,,,,,,,,,,,,,,,
6/15/2014 1:00,258,,,,,,,,,,,,,,,,,
6/15/2014 2:00,231,,,,,,,,,,,,,,,,,
6/15/2014 3:00,214,,,,,,,,,,,,,,,,,
6/15/2014 4:00,209,,,,,,,,,,,,,,,,,
6/15/2014 5:00,211,,,,,,,,,,,,,,,,,
6/15/2014 6:00,211,,,,,,,,,,,,,,,,,
6/15/2014 7:00,240,,,,,,,,,,,,,,,,,
6/15/2014 8:00,251,,,,,,,,,,,,,,,,,
6/15/2014 9:00,274,,,,,,,,,,,,,,,,,
6/15/2014 10:00,344,,,,,,,,,,,,,,,,,
6/15/2014 11:00,388,,,,,,,,,,,,,,,,,
6/15/2014 12:00,394,,,,,,,,,,,,,,,,,
6/15/2014 13:00,388,,,,,,,,,,,,,,,,,
6/15/2014 14:00,365,,,,,,,,,,,,,,,,,
6/15/2014 15:00,354,,,,,,,,,,,,,,,,,
6/15/2014 16:00,356,,,,,,,,,,,,,,,,,
6/15/2014 17:00,376,,,,,,,,,,,,,,,,,
6/15/2014 18:00,370,,,,,,,,,,,,,,,,,
6/15/2014 19:00,342,,,,,,,,,,,,,,,,,
6/15/2014 20:00,332,,,,,,,,,,,,,,,,,
6/15/2014 21:00,336,,,,,,,,,,,,,,,,,
6/15/2014 22:00,341,,,,,,,,,,,,,,,,,
6/15/2014 23:00,325,,,,,,,,,,,,,,,,,
6/16/2014 0:00,260,,,,,,,,,,,,,,,,,
6/16/2014 1:00,221,,,,,,,,,,,,,,,,,
6/16/2014 2:00,258,,,,,,,,,,,,,,,,,
6/16/2014 3:00,260,,,,,,,,,,,,,,,,,
6/16/2014 4:00,249,,,,,,,,,,,,,,,,,
6/16/2014 5:00,237,,,,,,,,,,,,,,,,,
6/16/2014 6:00,253,,,,,,,,,,,,,,,,,
6/16/2014 7:00,274,,,,,,,,,,,,,,,,,
6/16/2014 8:00,321,,,,,,,,,,,,,,,,,
6/16/2014 9:00,364,,,,,,,,,,,,,,,,,
6/16/2014 10:00,381,,,,,,,,,,,,,,,,,
6/16/2014 11:00,403,,,,,,,,,,,,,,,,,
6/16/2014 12:00,424,,,,,,,,,,,,,,,,,
6/16/2014 13:00,431,,,,,,,,,,,,,,,,,
6/16/2014 14:00,424,,,,,,,,,,,,,,,,,
6/16/2014 15:00,426,,,,,,,,,,,,,,,,,
6/16/2014 16:00,439,,,,,,,,,,,,,,,,,
6/16/2014 17:00,458,,,,,,,,,,,,,,,,,
6/16/2014 18:00,454,,,,,,,,,,,,,,,,,
6/16/2014 19:00,424,,,,,,,,,,,,,,,,,
6/16/2014 20:00,413,,,,,,,,,,,,,,,,,
6/16/2014 21:00,400,,,,,,,,,,,,,,,,,
6/16/2014 22:00,409,,,,,,,,,,,,,,,,,
6/16/2014 23:00,371,,,,,,,,,,,,,,,,,
6/17/2014 0:00,305,,,,,,,,,,,,,,,,,
6/17/2014 1:00,280,,,,,,,,,,,,,,,,,
6/17/2014 2:00,250,,,,,,,,,,,,,,,,,
6/17/2014 3:00,228,,,,,,,,,,,,,,,,,
6/17/2014 4:00,226,,,,,,,,,,,,,,,,,
6/17/2014 5:00,228,,,,,,,,,,,,,,,,,
6/17/2014 6:00,252,,,,,,,,,,,,,,,,,
6/17/2014 7:00,320,,,,,,,,,,,,,,,,,
6/17/2014 8:00,402,,,,,,,,,,,,,,,,,
6/17/2014 9:00,408,,,,,,,,,,,,,,,,,
6/17/2014 10:00,412,,,,,,,,,,,,,,,,,
6/17/2014 11:00,434,,,,,,,,,,,,,,,,,
6/17/2014 12:00,448,,,,,,,,,,,,,,,,,
6/17/2014 13:00,454,,,,,,,,,,,,,,,,,
6/17/2014 14:00,455,,,,,,,,,,,,,,,,,
6/17/2014 15:00,451,,,,,,,,,,,,,,,,,
6/17/2014 16:00,447,,,,,,,,,,,,,,,,,
6/17/2014 17:00,448,,,,,,,,,,,,,,,,,
6/17/2014 18:00,437,,,,,,,,,,,,,,,,,
6/17/2014 19:00,408,,,,,,,,,,,,,,,,,
6/17/2014 20:00,390,,,,,,,,,,,,,,,,,
6/17/2014 21:00,389,,,,,,,,,,,,,,,,,
6/17/2014 22:00,367,,,,,,,,,,,,,,,,,
6/17/2014 23:00,329,,,,,,,,,,,,,,,,,
6/18/2014 0:00,286,,,,,,,,,,,,,,,,,
6/18/2014 1:00,231,,,,,,,,,,,,,,,,,
6/18/2014 2:00,228,,,,,,,,,,,,,,,,,
6/18/2014 3:00,240,,,,,,,,,,,,,,,,,
6/18/2014 4:00,238,,,,,,,,,,,,,,,,,
6/18/2014 5:00,259,,,,,,,,,,,,,,,,,
6/18/2014 6:00,275,,,,,,,,,,,,,,,,,
6/18/2014 7:00,317,,,,,,,,,,,,,,,,,
6/18/2014 8:00,389,,,,,,,,,,,,,,,,,
6/18/2014 9:00,397,,,,,,,,,,,,,,,,,
6/18/2014 10:00,406,,,,,,,,,,,,,,,,,
6/18/2014 11:00,407,,,,,,,,,,,,,,,,,
6/18/2014 12:00,423,,,,,,,,,,,,,,,,,
6/18/2014 13:00,426,,,,,,,,,,,,,,,,,
6/18/2014 14:00,419,,,,,,,,,,,,,,,,,
6/18/2014 15:00,423,,,,,,,,,,,,,,,,,
6/18/2014 16:00,448,,,,,,,,,,,,,,,,,
6/18/2014 17:00,473,,,,,,,,,,,,,,,,,
6/18/2014 18:00,500,,,,,,,,,,,,,,,,,
6/18/2014 19:00,462,,,,,,,,,,,,,,,,,
6/18/2014 20:00,432,,,,,,,,,,,,,,,,,
6/18/2014 21:00,404,,,,,,,,,,,,,,,,,
6/18/2014 22:00,387,,,,,,,,,,,,,,,,,
6/18/2014 23:00,341,,,,,,,,,,,,,,,,,
6/19/2014 0:00,280,,,,,,,,,,,,,,,,,
6/19/2014 1:00,231,,,,,,,,,,,,,,,,,
6/19/2014 2:00,205,,,,,,,,,,,,,,,,,
6/19/2014 3:00,211,,,,,,,,,,,,,,,,,
6/19/2014 4:00,211,,,,,,,,,,,,,,,,,
6/19/2014 5:00,212,,,,,,,,,,,,,,,,,
6/19/2014 6:00,235,,,,,,,,,,,,,,,,,
6/19/2014 7:00,293,,,,,,,,,,,,,,,,,
6/19/2014 8:00,374,,,,,,,,,,,,,,,,,
6/19/2014 9:00,436,,,,,,,,,,,,,,,,,
6/19/2014 10:00,454,,,,,,,,,,,,,,,,,
6/19/2014 11:00,454,,,,,,,,,,,,,,,,,
6/19/2014 12:00,458,,,,,,,,,,,,,,,,,
6/19/2014 13:00,452,,,,,,,,,,,,,,,,,
6/19/2014 14:00,451,,,,,,,,,,,,,,,,,
6/19/2014 15:00,438,,,,,,,,,,,,,,,,,
6/19/2014 16:00,440,,,,,,,,,,,,,,,,,
6/19/2014 17:00,436,,,,,,,,,,,,,,,,,
6/19/2014 18:00,422,,,,,,,,,,,,,,,,,
6/19/2014 19:00,411,,,,,,,,,,,,,,,,,
6/19/2014 20:00,418,,,,,,,,,,,,,,,,,
6/19/2014 21:00,414,,,,,,,,,,,,,,,,,
6/19/2014 22:00,416,,,,,,,,,,,,,,,,,
6/19/2014 23:00,384,,,,,,,,,,,,,,,,,
6/20/2014 0:00,325,,,,,,,,,,,,,,,,,
6/20/2014 1:00,284,,,,,,,,,,,,,,,,,
6/20/2014 2:00,220,,,,,,,,,,,,,,,,,
6/20/2014 3:00,205,,,,,,,,,,,,,,,,,
6/20/2014 4:00,211,,,,,,,,,,,,,,,,,
6/20/2014 5:00,257,,,,,,,,,,,,,,,,,
6/20/2014 6:00,300,,,,,,,,,,,,,,,,,
6/20/2014 7:00,319,,,,,,,,,,,,,,,,,
6/20/2014 8:00,377,,,,,,,,,,,,,,,,,
6/20/2014 9:00,405,,,,,,,,,,,,,,,,,
6/20/2014 10:00,438,,,,,,,,,,,,,,,,,
6/20/2014 11:00,422,,,,,,,,,,,,,,,,,
6/20/2014 12:00,416,,,,,,,,,,,,,,,,,
6/20/2014 13:00,383,,,,,,,,,,,,,,,,,
6/20/2014 14:00,361,,,,,,,,,,,,,,,,,
6/20/2014 15:00,353,,,,,,,,,,,,,,,,,
6/20/2014 16:00,362,,,,,,,,,,,,,,,,,
6/20/2014 17:00,359,,,,,,,,,,,,,,,,,
6/20/2014 18:00,359,,,,,,,,,,,,,,,,,
6/20/2014 19:00,337,,,,,,,,,,,,,,,,,
6/20/2014 20:00,324,,,,,,,,,,,,,,,,,
6/20/2014 21:00,335,,,,,,,,,,,,,,,,,
6/20/2014 22:00,341,,,,,,,,,,,,,,,,,
6/20/2014 23:00,322,,,,,,,,,,,,,,,,,
6/21/2014 0:00,289,,,,,,,,,,,,,,,,,
6/21/2014 1:00,221,,,,,,,,,,,,,,,,,
6/21/2014 2:00,189,,,,,,,,,,,,,,,,,
6/21/2014 3:00,177,,,,,,,,,,,,,,,,,
6/21/2014 4:00,178,,,,,,,,,,,,,,,,,
6/21/2014 5:00,183,,,,,,,,,,,,,,,,,
6/21/2014 6:00,180,,,,,,,,,,,,,,,,,
6/21/2014 7:00,176,,,,,,,,,,,,,,,,,
6/21/2014 8:00,236,,,,,,,,,,,,,,,,,
6/21/2014 9:00,299,,,,,,,,,,,,,,,,,
6/21/2014 10:00,344,,,,,,,,,,,,,,,,,
6/21/2014 11:00,361,,,,,,,,,,,,,,,,,
6/21/2014 12:00,365,,,,,,,,,,,,,,,,,
6/21/2014 13:00,350,,,,,,,,,,,,,,,,,
6/21/2014 14:00,333,,,,,,,,,,,,,,,,,
6/21/2014 15:00,328,,,,,,,,,,,,,,,,,
6/21/2014 16:00,335,,,,,,,,,,,,,,,,,
6/21/2014 17:00,350,,,,,,,,,,,,,,,,,
6/21/2014 18:00,363,,,,,,,,,,,,,,,,,
6/21/2014 19:00,352,,,,,,,,,,,,,,,,,
6/21/2014 20:00,341,,,,,,,,,,,,,,,,,
6/21/2014 21:00,342,,,,,,,,,,,,,,,,,
6/21/2014 22:00,341,,,,,,,,,,,,,,,,,
6/21/2014 23:00,321,,,,,,,,,,,,,,,,,
6/22/2014 0:00,286,,,,,,,,,,,,,,,,,
6/22/2014 1:00,276,,,,,,,,,,,,,,,,,
6/22/2014 2:00,243,,,,,,,,,,,,,,,,,
6/22/2014 3:00,214,,,,,,,,,,,,,,,,,
6/22/2014 4:00,200,,,,,,,,,,,,,,,,,
6/22/2014 5:00,204,,,,,,,,,,,,,,,,,
6/22/2014 6:00,204,,,,,,,,,,,,,,,,,
6/22/2014 7:00,232,,,,,,,,,,,,,,,,,
6/22/2014 8:00,237,,,,,,,,,,,,,,,,,
6/22/2014 9:00,295,,,,,,,,,,,,,,,,,
6/22/2014 10:00,340,,,,,,,,,,,,,,,,,
6/22/2014 11:00,361,,,,,,,,,,,,,,,,,
6/22/2014 12:00,386,,,,,,,,,,,,,,,,,
6/22/2014 13:00,387,,,,,,,,,,,,,,,,,
6/22/2014 14:00,367,,,,,,,,,,,,,,,,,
6/22/2014 15:00,354,,,,,,,,,,,,,,,,,
6/22/2014 16:00,338,,,,,,,,,,,,,,,,,
6/22/2014 17:00,357,,,,,,,,,,,,,,,,,
6/22/2014 18:00,370,,,,,,,,,,,,,,,,,
6/22/2014 19:00,358,,,,,,,,,,,,,,,,,
6/22/2014 20:00,353,,,,,,,,,,,,,,,,,
6/22/2014 21:00,350,,,,,,,,,,,,,,,,,
6/22/2014 22:00,366,,,,,,,,,,,,,,,,,
6/22/2014 23:00,336,,,,,,,,,,,,,,,,,
6/23/2014 0:00,295,,,,,,,,,,,,,,,,,
6/23/2014 1:00,265,,,,,,,,,,,,,,,,,
6/23/2014 2:00,250,,,,,,,,,,,,,,,,,
6/23/2014 3:00,196,,,,,,,,,,,,,,,,,
6/23/2014 4:00,192,,,,,,,,,,,,,,,,,
6/23/2014 5:00,204,,,,,,,,,,,,,,,,,
6/23/2014 6:00,258,,,,,,,,,,,,,,,,,
6/23/2014 7:00,339,,,,,,,,,,,,,,,,,
6/23/2014 8:00,411,,,,,,,,,,,,,,,,,
6/23/2014 9:00,457,,,,,,,,,,,,,,,,,
6/23/2014 10:00,479,,,,,,,,,,,,,,,,,
6/23/2014 11:00,493,,,,,,,,,,,,,,,,,
6/23/2014 12:00,495,,,,,,,,,,,,,,,,,
6/23/2014 13:00,481,,,,,,,,,,,,,,,,,
6/23/2014 14:00,472,,,,,,,,,,,,,,,,,
6/23/2014 15:00,472,,,,,,,,,,,,,,,,,
6/23/2014 16:00,473,,,,,,,,,,,,,,,,,
6/23/2014 17:00,491,,,,,,,,,,,,,,,,,
6/23/2014 18:00,501,,,,,,,,,,,,,,,,,
6/23/2014 19:00,470,,,,,,,,,,,,,,,,,
6/23/2014 20:00,449,,,,,,,,,,,,,,,,,
6/23/2014 21:00,441,,,,,,,,,,,,,,,,,
6/23/2014 22:00,447,,,,,,,,,,,,,,,,,
6/23/2014 23:00,409,,,,,,,,,,,,,,,,,
6/24/2014 0:00,363,,,,,,,,,,,,,,,,,
6/24/2014 1:00,304,,,,,,,,,,,,,,,,,
6/24/2014 2:00,270,,,,,,,,,,,,,,,,,
6/24/2014 3:00,268,,,,,,,,,,,,,,,,,
6/24/2014 4:00,275,,,,,,,,,,,,,,,,,
6/24/2014 5:00,273,,,,,,,,,,,,,,,,,
6/24/2014 6:00,264,,,,,,,,,,,,,,,,,
6/24/2014 7:00,333,,,,,,,,,,,,,,,,,
6/24/2014 8:00,413,,,,,,,,,,,,,,,,,
6/24/2014 9:00,446,,,,,,,,,,,,,,,,,
6/24/2014 10:00,460,,,,,,,,,,,,,,,,,
6/24/2014 11:00,471,,,,,,,,,,,,,,,,,
6/24/2014 12:00,478,,,,,,,,,,,,,,,,,
6/24/2014 13:00,472,,,,,,,,,,,,,,,,,
6/24/2014 14:00,467,,,,,,,,,,,,,,,,,
6/24/2014 15:00,462,,,,,,,,,,,,,,,,,
6/24/2014 16:00,451,,,,,,,,,,,,,,,,,
6/24/2014 17:00,466,,,,,,,,,,,,,,,,,
6/24/2014 18:00,459,,,,,,,,,,,,,,,,,
6/24/2014 19:00,427,,,,,,,,,,,,,,,,,
6/24/2014 20:00,412,,,,,,,,,,,,,,,,,
6/24/2014 21:00,411,,,,,,,,,,,,,,,,,
6/24/2014 22:00,417,,,,,,,,,,,,,,,,,
6/24/2014 23:00,402,,,,,,,,,,,,,,,,,
6/25/2014 0:00,364,,,,,,,,,,,,,,,,,
6/25/2014 1:00,324,,,,,,,,,,,,,,,,,
6/25/2014 2:00,292,,,,,,,,,,,,,,,,,
6/25/2014 3:00,280,,,,,,,,,,,,,,,,,
6/25/2014 4:00,265,,,,,,,,,,,,,,,,,
6/25/2014 5:00,259,,,,,,,,,,,,,,,,,
6/25/2014 6:00,293,,,,,,,,,,,,,,,,,
6/25/2014 7:00,319,,,,,,,,,,,,,,,,,
6/25/2014 8:00,376,,,,,,,,,,,,,,,,,
6/25/2014 9:00,416,,,,,,,,,,,,,,,,,
6/25/2014 10:00,432,,,,,,,,,,,,,,,,,
6/25/2014 11:00,438,,,,,,,,,,,,,,,,,
6/25/2014 12:00,456,,,,,,,,,,,,,,,,,
6/25/2014 13:00,468,,,,,,,,,,,,,,,,,
6/25/2014 14:00,469,,,,,,,,,,,,,,,,,
6/25/2014 15:00,469,,,,,,,,,,,,,,,,,
6/25/2014 16:00,472,,,,,,,,,,,,,,,,,
6/25/2014 17:00,485,,,,,,,,,,,,,,,,,
6/25/2014 18:00,480,,,,,,,,,,,,,,,,,
6/25/2014 19:00,464,,,,,,,,,,,,,,,,,
6/25/2014 20:00,453,,,,,,,,,,,,,,,,,
6/25/2014 21:00,441,,,,,,,,,,,,,,,,,
6/25/2014 22:00,439,,,,,,,,,,,,,,,,,
6/25/2014 23:00,411,,,,,,,,,,,,,,,,,
6/26/2014 0:00,385,,,,,,,,,,,,,,,,,
6/26/2014 1:00,343,,,,,,,,,,,,,,,,,
6/26/2014 2:00,323,,,,,,,,,,,,,,,,,
6/26/2014 3:00,312,,,,,,,,,,,,,,,,,
6/26/2014 4:00,293,,,,,,,,,,,,,,,,,
6/26/2014 5:00,294,,,,,,,,,,,,,,,,,
6/26/2014 6:00,306,,,,,,,,,,,,,,,,,
6/26/2014 7:00,352,,,,,,,,,,,,,,,,,
6/26/2014 8:00,431,,,,,,,,,,,,,,,,,
6/26/2014 9:00,446,,,,,,,,,,,,,,,,,
6/26/2014 10:00,458,,,,,,,,,,,,,,,,,
6/26/2014 11:00,467,,,,,,,,,,,,,,,,,
6/26/2014 12:00,476,,,,,,,,,,,,,,,,,
6/26/2014 13:00,476,,,,,,,,,,,,,,,,,
6/26/2014 14:00,480,,,,,,,,,,,,,,,,,
6/26/2014 15:00,493,,,,,,,,,,,,,,,,,
6/26/2014 16:00,491,,,,,,,,,,,,,,,,,
6/26/2014 17:00,498,,,,,,,,,,,,,,,,,
6/26/2014 18:00,484,,,,,,,,,,,,,,,,,
6/26/2014 19:00,462,,,,,,,,,,,,,,,,,
6/26/2014 20:00,446,,,,,,,,,,,,,,,,,
6/26/2014 21:00,439,,,,,,,,,,,,,,,,,
6/26/2014 22:00,447,,,,,,,,,,,,,,,,,
6/26/2014 23:00,433,,,,,,,,,,,,,,,,,
6/27/2014 0:00,383,,,,,,,,,,,,,,,,,
6/27/2014 1:00,327,,,,,,,,,,,,,,,,,
6/27/2014 2:00,295,,,,,,,,,,,,,,,,,
6/27/2014 3:00,281,,,,,,,,,,,,,,,,,
6/27/2014 4:00,288,,,,,,,,,,,,,,,,,
6/27/2014 5:00,283,,,,,,,,,,,,,,,,,
6/27/2014 6:00,277,,,,,,,,,,,,,,,,,
6/27/2014 7:00,319,,,,,,,,,,,,,,,,,
6/27/2014 8:00,388,,,,,,,,,,,,,,,,,
6/27/2014 9:00,439,,,,,,,,,,,,,,,,,
6/27/2014 10:00,499,,,,,,,,,,,,,,,,,
6/27/2014 11:00,503,,,,,,,,,,,,,,,,,
6/27/2014 12:00,483,,,,,,,,,,,,,,,,,
6/27/2014 13:00,483,,,,,,,,,,,,,,,,,
6/27/2014 14:00,472,,,,,,,,,,,,,,,,,
6/27/2014 15:00,459,,,,,,,,,,,,,,,,,
6/27/2014 16:00,464,,,,,,,,,,,,,,,,,
6/27/2014 17:00,464,,,,,,,,,,,,,,,,,
6/27/2014 18:00,459,,,,,,,,,,,,,,,,,
6/27/2014 19:00,431,,,,,,,,,,,,,,,,,